Location: Dehesa de la Cepeda
(40.6574°N, 4.3013°W)
Time: 10:23:24
(UTC+00:00)

Vanguard 2 Rocket - Pass Details

Date: 30 October 2021
Orbit: 555 x 3324 km, 32.9° (Epoch: 08 December)

Event Time Altitude Azimuth Distance (km) Brightness Sun altitude
Exits shadow 03:14:45 38° 190° (S) 3,908 9.7 -40.1°
Maximum altitude 03:19:32 44° 158° (SSE) 3,394 9.6 -39.2°
Drops below altitude 10° 03:31:21 10° 93° (E) 4,346 11.0 -37.1°
Sets 03:34:22 0° 86° (E) 5,012 11.6 -36.5°
